Powrót do katalogu

STARLINK-11295

AktywnyŁącznośćVLEO
NORAD 61536·PAYLOAD·🇺🇸 United States

Wystrzelony Oct 15, 2024 z Vandenberg Space Force Base

Loading…

Następne Przeloty (najbliższe 24 godziny)

TLE

ŚwieżeSource: CelesTrak SupGP

Epoka: Sep 15, 2026, 02:58 UTC

1 61536C 24184E   26258.12409722 -.00059089  00000+0 -48668-3 0  2585
2 61536  53.1576  22.3366 0001005  82.5225 193.6269 15.69741963    10

Śledź STARLINK-11295 w czasie rzeczywistym z AllMySat

Download on the App Store